User: anonymous
Location: Unspecified
(0.0000°N, 0.0000°E)
Time: 12:10:46
(UTC+02:00)
Language:

Cosmos 2219 - Orbit

View from above orbital plane
View from above orbital plane
View from above satellite
View from above satellite

Ground track
Ground track

The orbit data is extracted from the following two-line orbital elements,

1 22219U 92076A   14264.11674480  .00000407  00000-0  24058-3 0  6101
2 22219 071.0584 126.5936 0016832 117.9787 006.1875 14.13489926126895
Epoch (UTC): 21 September 2014 02:48:06
Eccentricity: 0.0016832
inclination: 71.0584°
perigee height: 835 km
apogee height: 859 km
right ascension of ascending node: 126.5936°
argument of perigee: 117.9787°
revolutions per day: 14.13489926
mean anomaly at epoch: 6.1875°
orbit number at epoch: 12689

The dashed part of the orbit path shows where the satellite is in the earth's shadow,  

DLR